Location: Buckenweiler
(49.0667°N, 10.2500°E)
Time: 09:08:50
(UTC+00:00)

ATLAS 2AS CENTAUR R/B - Pass Details

Date: 18 January 2026
Orbit: 1050 x 1161 km, 63.7° (Epoch: 16 February)

Event Time Altitude Azimuth Distance (km) Brightness Sun altitude
Exits shadow 05:04:09 26° 311° (NW) 1,947 3.6 -19.4°
Maximum altitude 05:08:11 70° 234° (SW) 1,112 2.6 -18.8°
Drops below altitude 10° 05:14:53 10° 152° (SSE) 2,867 5.5 -17.7°
Sets 05:17:31 0° 150° (SSE) 3,826 6.2 -17.3°
